Regional Weather Roundup
Issued by NWS

Home | Current Version | Previous Version | Text Only | Print | Product List | Glossary Off
Versions: 1 2 3 4 5 6 7 8 9 10 11 12 13 14 15 16 17 18 19 20 21 22 23 24 25 26 27 28 29 30 31 32 33 34 35 36 37 38 39 40 41 42 43 44 45 46 47 48 49 50

000
ASUS43 KIND 290709
RWRIN

WEATHER ROUNDUP FOR INDIANA
NATIONAL WEATHER SERVICE INDIANAPOLIS IN
300 AM EDT SUN MAR 29 2015

NOTE: "FAIR" INDICATES FEW OR NO CLOUDS BELOW 12,000 FEET WITH NO
SIGNIFICANT WEATHER AND/OR OBSTRUCTIONS TO VISIBILITY.

* - STATION DOES NOT REPORT WEATHER SUCH AS PRECIPITATION OR FOG.

+ - STATION NOT QUALITY CONTROLLED BY THE NATIONAL WEATHER SERVICE.
    USE DATA WITH CAUTION...ESPECIALLY DEWPOINT AND RELATIVE
    HUMIDITY OBSERVATIONS.

INZ001>003-010>013-019-020-290800-
NORTHWEST INDIANA

CITY           SKY/WX    TMP DP  RH WIND       PRES   REMARKS
GARY /AIRPORT/ CLEAR     27  13  55 SE7       30.28F WCI  19
KNOX *+          N/A     19   5  53 S6        30.28S WCI  11
LA PORTE +     CLEAR     21  16  79 CALM      30.29S
MICHIGAN CITY+ CLEAR     21  10  63 CALM      30.28F
MONTICELLO +   CLEAR     28  18  65 S3        30.30S
RENSSELAER +   CLEAR     28  21  74 S6        30.29S WCI  22
VALPARAISO     CLEAR     22  15  75 CALM      30.28F

$$

LMZ046-743>745-290800-
SOUTHERN LAKE MICHIGAN

STATION/POSITION TIME  TEMP WIND        PRES
                       AIR  DIR/SP/G
                 (UTC) (F)  (DEG/KT/KT) (MB)
BURNS HARBOR     0700   27  170/  7/ 11 1025.7S
MICHIGAN CITY    0700   25  140/ 11/ 12   N/A

$$

INZ004-005-014>016-021>024-290800-
NORTH CENTRAL INDIANA

CITY           SKY/WX    TMP DP  RH WIND       PRES   REMARKS
GOSHEN         CLEAR     21  14  74 SE6       30.28F WCI  13
LOGANSPORT +   CLEAR     28  19  69 S7        30.31F WCI  21
PERU/GRISSOM   CLEAR     24  17  73 S3        30.29F
ROCHESTER +    CLEAR     30  19  64 S6        30.30S WCI  24
SOUTH BEND     CLEAR     23  14  68 CALM      30.28F
WARSAW +       CLEAR     21  14  73 CALM      30.29F

$$

INZ006>009-017-018-025>027-290800-
NORTHEAST INDIANA

CITY           SKY/WX    TMP DP  RH WIND       PRES   REMARKS
ANGOLA *+      CLEAR     18  12  79 CALM      30.28S
AUBURN +       CLEAR     23  14  68 CALM      30.31S
FORT WAYNE     CLEAR     24  16  71 S9        30.31F WCI  14
HUNTINGTON +   CLEAR     25  12  59 CALM      30.30F

$$

INZ028-029-035-036-043>045-051>053-290800-
WEST CENTRAL INDIANA

CITY           SKY/WX    TMP DP  RH WIND       PRES   REMARKS
CRAWFORDSVL +  CLEAR     24  14  64 SE7       30.30F WCI  16
GREENCASTLE +  CLEAR     25  12  58 CALM      30.31F
LAFAYETTE      CLEAR     27  17  66 S6        30.31F WCI  20
TERRE HAUTE    CLEAR     28  17  63 SE8       30.32F WCI  20

$$

INZ030>032-037>040-046>048-054>057-064-065-290800-
CENTRAL INDIANA

CITY           SKY/WX    TMP DP  RH WIND       PRES   REMARKS
CP ATTERBURY + CLEAR     21  19  93 CALM      30.34F
FRANKFORT +    CLEAR     24  19  83 SE6       30.31F WCI  16
GREENWOOD *+   CLEAR     27  12  54 SE3       30.33F
INDIANAPOLIS   CLEAR     25  13  60 SE6       30.31F WCI  18
-EAGLE CREEK   CLEAR     25  17  72 S3        30.32S
KOKOMO *+        N/A     25  18  74 S8        30.31F WCI  16
MARION +       CLEAR     25  16  68 S7        30.32F WCI  17
MT COMFORT *+  CLEAR     25  10  54 SE5       30.32F WCI  19
SHELBYVILLE    CLEAR     27  17  66 SE6       30.33S WCI  20
ZIONSVILLE +   CLEAR     26  17  68 S6        30.32S WCI  19

$$

INZ033-034-041-042-049-050-058-059-290800-
EAST CENTRAL INDIANA

CITY           SKY/WX    TMP DP  RH WIND       PRES   REMARKS
MUNCIE         CLEAR     25  14  63 S6        30.32S WCI  18

$$

INZ060-061-067>069-081>083-085>088-290800-
SOUTHWEST INDIANA

CITY           SKY/WX    TMP DP  RH WIND       PRES   REMARKS
EVANSVILLE     CLEAR     30  21  69 CALM      30.35F
HUNTINGBURG *+ CLEAR     27  18  69 SE7       30.35F WCI  19
WASHINGTON +   CLEAR     28  21  76 S5        30.33F WCI  22

$$

INZ062-063-066-070>080-084-089>092-290800-
SOUTH CENTRAL AND SOUTHEAST INDIANA

CITY           SKY/WX    TMP DP  RH WIND       PRES   REMARKS
BEDFORD +      CLEAR     27  18  69 SE5       30.34S WCI  21
BLOOMINGTON    CLEAR     25  16  68 CALM      30.32F
NORTH VERNON + CLEAR     27  16  63 SE5       30.35S WCI  21
SEYMOUR +      CLEAR     25  21  86 CALM      30.35F

$$




USA.gov is the U.S. government's official web portal to all federal, state and local government web resources and services.